Preview of NWS' New Version of Forecast
This preview is not operational and should not be used for support decisions.

Regional Weather Roundup (RWR)

Issued by National Weather Service (NWS)

                            
000
ASUS43 KTOP 211008
RWRKS 

WEATHER ROUNDUP FOR KANSAS
NATIONAL WEATHER SERVICE GOODLAND KS
500 AM CDT WED AUG 21 2019

NOTE:  "FAIR" INDICATES FEW OR NO CLOUDS BELOW 12,000 FEET WITH NO
SIGNIFICANT WEATHER AND/OR OBSTRUCTIONS TO VISIBILITY.

KSZ001>006-013>018-027>032-041>047-211100-
NORTHWEST KANSAS
  
CITY           SKY/WX    TMP DP  RH WIND       PRES   REMARKS
GOODLAND       MOCLDY    69  57  65 VRB7      30.06R                  
HAYS           CLEAR     74  64  71 S24G31    29.77F                  
HILL CITY      CLEAR     80  58  46 SW5       29.93F                  
RUSSELL        CLEAR     79  62  56 SW21G32   29.95F                  
$$

KSZ061>065-074>080-084>089-211100-
SOUTHWEST KANSAS
  
CITY           SKY/WX    TMP DP  RH WIND       PRES   REMARKS
DODGE CITY     PTCLDY    76  63  64 SE10      30.05R                  
ELKHART        CLEAR     71  56  59 SW8       30.03F                  
GARDEN CITY    CLEAR     67  61  81 SE8       30.01F                  
GREAT BEND     LGT RAIN  73  63  70 SW23G30   30.00R                  
LIBERAL        PTCLDY    78  62  57 S14       30.02R                  
PRATT          CLEAR     78  59  52 W10       30.01R                  
$$

KSZ066>073-081>083-090>101-211100-
SOUTHEAST KANSAS
  
CITY           SKY/WX    TMP DP  RH WIND       PRES   REMARKS
CHANUTE        CLEAR     81  73  76 S8        29.96R                  
COFFEYVILLE    CLEAR     78  74  87 S7        29.94R                  
HUTCHINSON     CLEAR     76  69  79 CALM      29.97R                  
MEDICINE LODGE   N/A     79  62  56 N9        29.98R                  
NEWTON         CLEAR     77  71  82 SW7       29.98R                  
PARSONS        CLEAR     78  75  90 S6        29.97R                  
WICHITA INTL   MOCLDY    78  70  76 SE7       29.96R                  
WICHITA JABRA  CLEAR     79  70  74 S8        29.96S                  
WICHITA MCCONL CLEAR     77  68  72 S8        29.97R                  
WINFIELD       CLEAR     75  71  87 CALM      29.97R                  
$$

KSZ007>012-019>026-033>040-048>060-102>105-211100-
NORTHEAST KANSAS
  
CITY           SKY/WX    TMP DP  RH WIND       PRES   REMARKS
CONCORDIA      LGT RAIN  72  68  87 NE10G21   30.01S                  
EMPORIA        TSTM      76  74  93 VRB3      29.97S                  
LAWRENCE       PTCLDY    79  75  87 NE5       29.94R                  
MANHATTAN      MOCLDY    84  71  65 N17G39    29.97R                  
MARYSVILLE     MOCLDY    68  64  88 NE8       30.03R                  
OLATHE IND     MOCLDY    78  74  87 S7        29.96S                  
OLATHE EXE     MOCLDY    76  75  97 S6        29.96R                  
SALINA         CLEAR     78  71  79 E6        29.94S                  
TOPEKA BILLARD CLOUDY    80  71  74 N15G31    29.98R THUNDER          
TOPEKA FORBES  PTCLDY    80  68  66 SW5       29.95R                  
$$